Weather reports worldwide

Advertisment
Hohenfels, Germany (10775): temperature & dewpoint: 22.01.2020 07:00:00 - 28.01.2020 07:00:00 (CET)Hohenfels, Germany (10775): wind speed: 22.01.2020 07:00:00 - 28.01.2020 07:00:00 (CET)Hohenfels, Germany (10775): wind direction: 22.01.2020 07:00:00 - 28.01.2020 07:00:00 (CET)Hohenfels, Germany (10775): reduced air pressure: 22.01.2020 07:00:00 - 28.01.2020 07:00:00 (CET)Hohenfels, Germany (10775): visibility: 22.01.2020 07:00:00 - 28.01.2020 07:00:00 (CET)Hohenfels, Germany (10775): precipitation: 22.01.2020 07:00:00 - 28.01.2020 07:00:00 (CET)
Date & Time tt [°C] td [°C] ff [km/h] ff [kn] dd ppp [hPa] vv [km] rr [mm]
28.01.2020 07:00:00 5,0 2,9 9 5 SSW 1002,9 10 -
28.01.2020 06:00:00 5,1 3,1 16 9 SSW 1003,1 10 0,0
28.01.2020 05:00:00 4,8 3,0 13 7 SSW 1003,3 10 0,8
28.01.2020 04:00:00 3,8 2,5 5 3 S 1004,0 10 0,3
28.01.2020 03:00:00 4,1 2,8 5 3 SSE 1004,6 10 0,0
28.01.2020 02:00:00 4,6 2,9 9 5 SSW 1005,8 10 1,5
28.01.2020 01:00:00 3,5 2,2 5 3 S 1006,8 10 0,3
28.01.2020 00:00:00 3,0 1,8 0 0 N 1008,3 10 0,3
27.01.2020 23:00:00 2,0 1,0 0 0 N 1008,8 9 0,0
27.01.2020 22:00:00 1,5 0,5 0 0 N 1010,1 6 -
27.01.2020 21:00:00 1,9 0,9 0 0 N 1011,1 6 0,0
27.01.2020 20:00:00 1,3 0,1 5 3 W 1012,0 9 -
27.01.2020 19:00:00 2,6 1,3 0 0 N 1012,5 10 -
27.01.2020 18:00:00 1,4 0,1 0 0 N 1013,3 8 -
27.01.2020 17:00:00 2,5 1,0 5 3 ESE 1013,5 8 -
27.01.2020 16:00:00 3,1 1,5 8 4 E 1014,4 9 -
27.01.2020 15:00:00 4,9 2,3 11 6 E 1014,6 10 -
27.01.2020 14:00:00 5,8 3,3 9 5 ESE 1015,3 10 -
27.01.2020 13:00:00 5,0 3,2 0 0 N 1016,6 10 -
27.01.2020 12:00:00 3,4 2,1 9 5 SE 1017,5 10 -
27.01.2020 11:00:00 1,7 0,8 0 0 N 1018,5 4,4 -
27.01.2020 10:00:00 0,3 -0,6 0 0 N 1019,4 2,0 -
27.01.2020 09:00:00 -0,5 -1,5 0 0 N 1019,4 2,4 -
27.01.2020 08:00:00 -1,8 -2,8 5 3 ESE 1020,0 2,0 -
27.01.2020 07:00:00 -1,4 -2,4 0 0 N 1019,7 2,8 -
27.01.2020 06:00:00 -1,4 -2,4 0 0 N 1020,1 5 -
27.01.2020 05:00:00 -2,0 -3,0 0 0 N 1020,2 2,8 0,0
27.01.2020 04:00:00 -2,2 -3,2 0 0 N 1020,0 0,4 0,0
27.01.2020 03:00:00 -1,9 -2,9 0 0 N 1020,3 0,4 -
27.01.2020 02:00:00 -2,0 -3,0 0 0 N 1020,3 0,4 -
27.01.2020 01:00:00 -2,7 -3,8 0 0 N 1020,9 4,0 -
27.01.2020 00:00:00 -2,0 -4,0 0 0 N 1021,2 4,4 -
26.01.2020 23:00:00 -2,6 -3,7 0 0 N 1021,1 2,4 -
26.01.2020 22:00:00 -2,1 -3,2 0 0 N 1021,5 2,8 -
26.01.2020 21:00:00 -1,6 -2,7 0 0 N 1021,7 4,4 -
26.01.2020 20:00:00 -1,4 -2,5 0 0 N 1021,5 5 -
26.01.2020 19:00:00 -1,3 -2,4 0 0 N 1021,1 5 -
26.01.2020 18:00:00 0,0 -1,4 0 0 N 1021,1 5 -
26.01.2020 17:00:00 2,2 0,1 0 0 N 1020,9 9 -
26.01.2020 16:00:00 3,6 1,0 5 3 ESE 1020,7 10 -
26.01.2020 15:00:00 3,8 1,0 0 0 N 1021,0 10 -
26.01.2020 14:00:00 3,4 2,1 9 5 E 1021,4 9 -
26.01.2020 13:00:00 3,1 1,8 5 3 E 1021,7 10 -
26.01.2020 12:00:00 2,7 1,5 5 3 E 1022,1 9 -
26.01.2020 11:00:00 0,7 -0,3 0 0 N 1022,9 5 -
26.01.2020 10:00:00 -0,5 -1,6 0 0 N 1022,9 4,4 -
26.01.2020 09:00:00 -1,1 -2,1 0 0 N 1022,8 3,2 -
26.01.2020 08:00:00 -2,0 -3,0 0 0 N 1022,8 2,8 -
26.01.2020 07:00:00 -1,5 -2,5 0 0 N 1022,5 4,0 -
26.01.2020 06:00:00 -1,5 -2,5 0 0 N 1022,5 3,6 -
26.01.2020 05:00:00 -1,5 -2,5 0 0 N 1022,5 3,6 -
26.01.2020 04:00:00 -1,5 -2,5 0 0 N 1022,3 2,6 -
26.01.2020 03:00:00 -1,4 -2,4 0 0 N 1022,9 3,0 -
26.01.2020 02:00:00 -1,3 -2,3 0 0 N 1023,3 0,8 -
26.01.2020 01:00:00 -1,4 -2,4 0 0 N 1023,5 0,6 -
26.01.2020 00:00:00 -1,2 -2,2 0 0 N 1024,1 1,6 -
25.01.2020 23:00:00 -1,1 -2,1 0 0 N 1024,1 0,6 -
25.01.2020 22:00:00 -0,9 -1,9 0 0 N 1024,6 2,0 -
25.01.2020 21:00:00 -0,8 -1,6 0 0 N 1025,0 1,8 -
25.01.2020 20:00:00 -0,7 -1,6 0 0 N 1025,0 0,6 -
25.01.2020 19:00:00 -0,7 -1,7 0 0 N 1024,9 0,4 0,0
25.01.2020 18:00:00 -0,7 -1,7 0 0 N 1024,9 0,4 -
25.01.2020 17:00:00 -0,3 -1,3 0 0 N 1024,5 0,2 -
25.01.2020 16:00:00 0,2 -0,9 5 3 ESE 1024,9 1,2 -
25.01.2020 15:00:00 0,3 -1,0 0 0 N 1024,6 3,6 -
25.01.2020 14:00:00 0,0 -1,4 0 0 N 1025,0 5 -
25.01.2020 13:00:00 -1,2 -2,3 0 0 N 1025,5 4,4 -
25.01.2020 12:00:00 -2,2 -3,5 0 0 N 1025,9 5 -
25.01.2020 11:00:00 -4,0 -5,0 0 0 N 1026,6 4,4 0,0
25.01.2020 10:00:00 -5,0 -6,0 0 0 N 1025,9 0,6 0,0
25.01.2020 09:00:00 -5,7 -7,4 0 0 N 1026,2 0,2 -
25.01.2020 08:00:00 -6,0 -7,0 0 0 N 1025,8 0,2 0,0
25.01.2020 07:00:00 -7,2 -9,2 0 0 N 1025,8 9 -
25.01.2020 06:00:00 -7,3 -9,4 0 0 N 1024,9 10 -
25.01.2020 05:00:00 -7,2 -9,2 0 0 N 1024,5 9 -
25.01.2020 04:00:00 -7,2 -9,2 0 0 N 1024,9 9 -
25.01.2020 03:00:00 -6,4 -8,4 0 0 N 1025,0 9 -
25.01.2020 02:00:00 -6,5 -8,5 0 0 N 1025,3 8 -
25.01.2020 01:00:00 -6,3 -8,1 0 0 N 1025,9 8 -
25.01.2020 00:00:00 -5,5 -7,0 0 0 N 1026,0 6 -
24.01.2020 23:00:00 -5,2 -6,7 0 0 N 1026,4 6 -
24.01.2020 22:00:00 -4,2 -5,8 0 0 N 1026,4 6 -
24.01.2020 21:00:00 -2,7 -4,1 0 0 N 1026,7 6 -
24.01.2020 20:00:00 -3,7 -5,1 0 0 N 1026,9 6 -
24.01.2020 19:00:00 -2,9 -4,3 0 0 N 1026,6 6 -
24.01.2020 18:00:00 -1,4 -3,3 0 0 N 1026,0 9 -
24.01.2020 17:00:00 -0,4 -2,8 0 0 N 1026,0 9 -
24.01.2020 16:00:00 -0,1 -2,8 0 0 N 1026,6 9 -
24.01.2020 15:00:00 -0,3 -3,0 0 0 N 1026,6 10 -
24.01.2020 14:00:00 -0,5 -3,2 0 0 N 1026,9 9 -
24.01.2020 13:00:00 -1,4 -3,8 0 0 N 1027,9 8 -
24.01.2020 12:00:00 -1,4 -3,6 0 0 N 1028,3 8 -
24.01.2020 11:00:00 -2,0 -4,0 8 4 WSW 1028,6 8 -
24.01.2020 10:00:00 -2,1 -4,0 0 0 N 1028,3 6 -
24.01.2020 09:00:00 -3,3 -4,7 0 0 N 1028,3 6 -
24.01.2020 08:00:00 -3,9 -5,5 0 0 N 1027,9 8 -
24.01.2020 07:00:00 -4,3 -6,1 0 0 N 1027,7 10 -
24.01.2020 06:00:00 -5,0 -6,8 0 0 N 1027,7 10 -
24.01.2020 05:00:00 -5,9 -8,0 0 0 N 1027,7 10 -
24.01.2020 04:00:00 -7,5 -9,6 0 0 N 1028,1 10 -
24.01.2020 03:00:00 -7,7 -9,7 0 0 N 1029,0 10 -
24.01.2020 02:00:00 -7,1 -9,1 0 0 N 1029,0 10 -
24.01.2020 01:00:00 -6,6 -8,4 0 0 N 1029,3 10 -
24.01.2020 00:00:00 -6,0 -7,7 0 0 N 1029,8 10 -
23.01.2020 23:00:00 -5,6 -7,3 5 3 NNW 1029,7 10 -
23.01.2020 22:00:00 -5,2 -6,9 0 0 N 1030,0 10 -
23.01.2020 21:00:00 -4,2 -5,8 0 0 N 1030,1 9 -
23.01.2020 20:00:00 -3,6 -5,2 0 0 N 1030,1 9 -
23.01.2020 19:00:00 -2,8 -4,4 0 0 N 1030,1 10 -
23.01.2020 18:00:00 -1,7 -3,6 0 0 N 1030,3 10 -
23.01.2020 17:00:00 -0,8 -3,2 0 0 N 1030,4 10 -
23.01.2020 16:00:00 0,0 -2,9 5 3 NE 1031,1 10 -
23.01.2020 15:00:00 0,3 -2,6 9 5 E 1032,1 10 -
23.01.2020 14:00:00 -0,4 -2,9 5 3 E 1033,1 10 0,0
23.01.2020 13:00:00 -0,4 -2,9 5 3 SE 1034,5 10 -
23.01.2020 12:00:00 -0,9 -3,0 11 6 ESE 1035,2 10 -
23.01.2020 11:00:00 -1,7 -3,3 9 5 ESE 1036,1 9 -
23.01.2020 10:00:00 -2,1 -3,4 13 7 ESE 1036,4 6 -
23.01.2020 09:00:00 -2,3 -3,4 0 0 N 1036,4 3,2 -
23.01.2020 08:00:00 -2,0 -3,0 9 5 SE 1036,8 3,0 0,0
23.01.2020 07:00:00 -2,0 -3,0 8 4 ESE 1036,8 1,4 0,0
23.01.2020 06:00:00 -2,0 -3,1 5 3 ESE 1036,8 1,2 0,0
23.01.2020 05:00:00 -1,9 -3,3 8 4 ESE 1036,8 6 -
23.01.2020 04:00:00 -1,9 -3,3 0 0 N 1037,1 8 -
23.01.2020 03:00:00 -1,8 -3,2 0 0 N 1037,8 8 -
23.01.2020 02:00:00 -1,7 -3,3 0 0 N 1037,8 8 -
23.01.2020 01:00:00 -1,8 -3,4 0 0 N 1037,8 9 -
23.01.2020 00:00:00 - - - - - - - -
22.01.2020 23:00:00 - - - - - - - -
22.01.2020 22:00:00 - - - - - - - -
22.01.2020 21:00:00 - - - - - - - -
22.01.2020 20:00:00 - - - - - - - -
22.01.2020 19:00:00 - - - - - - - -
22.01.2020 18:00:00 - - - - - - - -
22.01.2020 17:00:00 -2,0 -5,0 5 3 NNW 1036,7 10 -
22.01.2020 16:00:00 - - - - - - - -
22.01.2020 15:00:00 - - - - - - - -
22.01.2020 14:00:00 - - - - - - - -
22.01.2020 13:00:00 - - - - - - - -
22.01.2020 12:00:00 - - - - - - - -
22.01.2020 11:00:00 -3,1 -5,1 8 4 W 1037,7 9 -
22.01.2020 10:00:00 -3,6 -5,2 0 0 N 1037,7 6 -
22.01.2020 09:00:00 -3,9 -5,3 0 0 N 1038,0 5 -
22.01.2020 08:00:00 -3,5 -4,9 5 3 SE 1037,3 5 -
22.01.2020 07:00:00 -3,3 -4,7 0 0 N 1037,7 6 -

tt = temperature
td = dewpoint
ff = wind speed
dd = wind direction
ppp = reduced air pressure
vv = visibility
rr = precipitation

Next stations